Time,TemperatureF,DewpointF,PressureIn,WindDirection,WindDirectionDegrees,WindSpeedMPH,WindSpeedGustMPH,Humidity,HourlyPrecipIn,Conditions,Clouds,dailyrainin,SoftwareType,DateUTC
2013-11-15 00:10:00,45.1,41.0,30.30,NNW,348,8.0,8.0,84,0.00,,,0.00,weatherlink.com 1.10,2013-11-15 00:10:00,
2013-11-15 00:25:00,45.0,41.0,30.28,NW,320,6.0,10.0,85,0.00,,,0.00,weatherlink.com 1.10,2013-11-15 00:25:00,
2013-11-15 00:40:00,45.1,41.0,30.28,North,352,4.0,10.0,86,0.00,,,0.00,weatherlink.com 1.10,2013-11-15 00:40:00,
2013-11-15 00:55:00,45.1,41.0,30.29,NNW,340,2.0,10.0,86,0.00,,,0.00,weatherlink.com 1.10,2013-11-15 00:55:00,
2013-11-15 01:10:00,45.0,41.0,30.28,NW,308,6.0,8.0,86,0.00,,,0.00,weatherlink.com 1.10,2013-11-15 01:10:00,
2013-11-15 01:25:00,45.0,41.0,30.28,SSW,207,1.0,8.0,86,0.00,,,0.00,weatherlink.com 1.10,2013-11-15 01:25:00,
2013-11-15 01:40:00,44.7,41.0,30.27,NNW,328,7.0,8.0,86,0.00,,,0.00,weatherlink.com 1.10,2013-11-15 01:40:00,
2013-11-15 01:55:00,-999.0,-99.9,30.28,North,-999,-999.0,-999.0,-999,0.00,,,0.00,weatherlink.com 1.10,2013-11-15 01:55:00,
2013-11-15 02:10:00,-999.0,-99.9,30.27,North,-999,-999.0,-999.0,-999,0.00,,,0.00,weatherlink.com 1.10,2013-11-15 02:10:00,
2013-11-15 02:25:00,-999.0,-99.9,30.27,North,-999,-999.0,-999.0,-999,0.00,,,0.00,weatherlink.com 1.10,2013-11-15 02:25:00,
2013-11-15 02:40:00,-999.0,-99.9,30.27,North,-999,-999.0,-999.0,-999,0.00,,,0.00,weatherlink.com 1.10,2013-11-15 02:40:00,
2013-11-15 02:55:00,-999.0,-99.9,30.27,North,-999,-999.0,-999.0,-999,0.00,,,0.00,weatherlink.com 1.10,2013-11-15 02:55:00,
2013-11-15 03:10:00,-999.0,-99.9,30.26,North,-999,-999.0,-999.0,-999,0.00,,,0.00,weatherlink.com 1.10,2013-11-15 03:10:00,
2013-11-15 03:25:00,-999.0,-99.9,30.27,North,-999,-999.0,-999.0,-999,0.00,,,0.00,weatherlink.com 1.10,2013-11-15 03:25:00,
2013-11-15 03:40:00,-999.0,-99.9,30.26,North,-999,-999.0,-999.0,-999,0.00,,,0.00,weatherlink.com 1.10,2013-11-15 03:40:00,
2013-11-15 03:56:00,-999.0,-99.9,30.26,North,-999,-999.0,-999.0,-999,0.00,,,0.00,weatherlink.com 1.10,2013-11-15 03:56:00,
2013-11-15 04:11:00,-999.0,-99.9,30.26,North,-999,-999.0,-999.0,-999,0.00,,,0.00,weatherlink.com 1.10,2013-11-15 04:11:00,
2013-11-15 04:26:00,-999.0,-99.9,30.26,North,-999,-999.0,-999.0,-999,0.00,,,0.00,weatherlink.com 1.10,2013-11-15 04:26:00,
2013-11-15 04:41:00,-999.0,-99.9,30.25,North,-999,-999.0,-999.0,-999,0.00,,,0.00,weatherlink.com 1.10,2013-11-15 04:41:00,
2013-11-15 04:56:00,-999.0,-99.9,30.25,North,-999,-999.0,-999.0,-999,0.00,,,0.00,weatherlink.com 1.10,2013-11-15 04:56:00,
2013-11-15 05:11:00,-999.0,-99.9,30.25,North,-999,-999.0,-999.0,-999,0.00,,,0.00,weatherlink.com 1.10,2013-11-15 05:11:00,
2013-11-15 05:26:00,-999.0,-99.9,30.25,North,-999,-999.0,-999.0,-999,0.00,,,0.00,weatherlink.com 1.10,2013-11-15 05:26:00,
2013-11-15 05:41:00,-999.0,-99.9,30.24,North,-999,-999.0,-999.0,-999,0.00,,,0.00,weatherlink.com 1.10,2013-11-15 05:41:00,
2013-11-15 05:56:00,-999.0,-99.9,30.25,North,-999,-999.0,-999.0,-999,0.00,,,0.00,weatherlink.com 1.10,2013-11-15 05:56:00,
2013-11-15 06:11:00,-999.0,-99.9,30.25,North,-999,-999.0,-999.0,-999,0.00,,,0.00,weatherlink.com 1.10,2013-11-15 06:11:00,
2013-11-15 06:26:00,-999.0,-99.9,30.25,North,-999,-999.0,-999.0,-999,0.00,,,0.00,weatherlink.com 1.10,2013-11-15 06:26:00,
2013-11-15 06:41:00,-999.0,-99.9,30.25,North,-999,-999.0,-999.0,-999,0.00,,,0.00,weatherlink.com 1.10,2013-11-15 06:41:00,
2013-11-15 06:56:00,-999.0,-99.9,30.25,North,-999,-999.0,-999.0,-999,0.00,,,0.00,weatherlink.com 1.10,2013-11-15 06:56:00,
2013-11-15 07:11:00,-999.0,-99.9,30.25,North,-999,-999.0,-999.0,-999,0.00,,,0.00,weatherlink.com 1.10,2013-11-15 07:11:00,
2013-11-15 07:27:00,-999.0,-99.9,30.25,North,-999,-999.0,-999.0,-999,0.00,,,0.00,weatherlink.com 1.10,2013-11-15 07:27:00,
2013-11-15 07:42:00,-999.0,-99.9,30.26,North,-999,-999.0,-999.0,-999,0.00,,,0.00,weatherlink.com 1.10,2013-11-15 07:42:00,
2013-11-15 07:57:00,-999.0,-99.9,30.26,North,-999,-999.0,-999.0,-999,0.00,,,0.00,weatherlink.com 1.10,2013-11-15 07:57:00,
2013-11-15 08:12:00,-999.0,-99.9,30.27,North,-999,-999.0,-999.0,-999,0.00,,,0.00,weatherlink.com 1.10,2013-11-15 08:12:00,
2013-11-15 08:27:00,-999.0,-99.9,30.26,North,-999,-999.0,-999.0,-999,0.00,,,0.00,weatherlink.com 1.10,2013-11-15 08:27:00,
2013-11-15 08:42:00,-999.0,-99.9,30.27,North,-999,-999.0,-999.0,-999,0.00,,,0.00,weatherlink.com 1.10,2013-11-15 08:42:00,
2013-11-15 08:57:00,-999.0,-99.9,30.27,North,-999,-999.0,-999.0,-999,0.00,,,0.00,weatherlink.com 1.10,2013-11-15 08:57:00,
2013-11-15 09:12:00,-999.0,-99.9,30.26,North,-999,-999.0,-999.0,-999,0.00,,,0.00,weatherlink.com 1.10,2013-11-15 09:12:00,
2013-11-15 09:27:00,-999.0,-99.9,30.27,North,-999,-999.0,-999.0,-999,0.00,,,0.00,weatherlink.com 1.10,2013-11-15 09:27:00,
2013-11-15 09:42:00,47.7,43.0,30.27,NNW,344,4.0,11.0,83,0.00,,,0.00,weatherlink.com 1.10,2013-11-15 09:42:00,
2013-11-15 09:57:00,47.8,43.0,30.27,NNW,346,5.0,10.0,83,0.00,,,0.00,weatherlink.com 1.10,2013-11-15 09:57:00,
2013-11-15 10:12:00,47.9,43.0,30.26,North,6,3.0,11.0,84,0.00,,,0.00,weatherlink.com 1.10,2013-11-15 10:12:00,
2013-11-15 10:27:00,48.0,43.0,30.26,NNW,347,9.0,10.0,84,0.00,,,0.00,weatherlink.com 1.10,2013-11-15 10:27:00,
2013-11-15 10:42:00,48.1,44.0,30.27,North,356,4.0,9.0,85,0.00,,,0.00,weatherlink.com 1.10,2013-11-15 10:42:00,
2013-11-15 10:57:00,48.4,44.0,30.26,WNW,288,4.0,9.0,84,0.00,,,0.00,weatherlink.com 1.10,2013-11-15 10:57:00,
2013-11-15 11:12:00,48.8,44.0,30.26,North,354,2.0,7.0,84,0.00,,,0.00,weatherlink.com 1.10,2013-11-15 11:12:00,
2013-11-15 11:27:00,49.2,44.0,30.25,NW,325,4.0,8.0,83,0.00,,,0.00,weatherlink.com 1.10,2013-11-15 11:27:00,
2013-11-15 11:42:00,49.5,45.0,30.25,NW,319,3.0,8.0,84,0.00,,,0.00,weatherlink.com 1.10,2013-11-15 11:42:00,
2013-11-15 11:57:00,49.8,45.0,30.24,NW,320,2.0,9.0,83,0.00,,,0.00,weatherlink.com 1.10,2013-11-15 11:57:00,
2013-11-15 12:12:00,49.9,45.0,30.24,NW,314,4.0,10.0,83,0.00,,,0.00,weatherlink.com 1.10,2013-11-15 12:12:00,
2013-11-15 12:27:00,50.0,45.0,30.24,WNW,287,3.0,10.0,82,0.00,,,0.00,weatherlink.com 1.10,2013-11-15 12:27:00,
2013-11-15 12:42:00,50.0,45.0,30.23,NNW,341,5.0,10.0,82,0.00,,,0.00,weatherlink.com 1.10,2013-11-15 12:42:00,
2013-11-15 12:57:00,50.2,45.0,30.22,NE,40,3.0,8.0,83,0.00,,,0.00,weatherlink.com 1.10,2013-11-15 12:57:00,
2013-11-15 13:12:00,50.1,46.0,30.22,NNW,333,4.0,11.0,84,0.00,,,0.00,weatherlink.com 1.10,2013-11-15 13:12:00,
2013-11-15 13:28:00,50.2,45.0,30.21,NNW,327,1.0,11.0,83,0.00,,,0.00,weatherlink.com 1.10,2013-11-15 13:28:00,
2013-11-15 13:43:00,50.3,46.0,30.21,SSW,203,3.0,8.0,84,0.00,,,0.00,weatherlink.com 1.10,2013-11-15 13:43:00,
2013-11-15 13:58:00,50.3,46.0,30.21,WNW,300,7.0,10.0,84,0.00,,,0.00,weatherlink.com 1.10,2013-11-15 13:58:00,
2013-11-15 14:13:00,50.2,46.0,30.20,NW,316,8.0,12.0,85,0.00,,,0.00,weatherlink.com 1.10,2013-11-15 14:13:00,
2013-11-15 14:28:00,50.3,46.0,30.20,West,276,6.0,11.0,85,0.00,,,0.00,weatherlink.com 1.10,2013-11-15 14:28:00,
2013-11-15 14:43:00,50.3,46.0,30.20,NW,316,4.0,13.0,85,0.00,,,0.00,weatherlink.com 1.10,2013-11-15 14:43:00,
2013-11-15 14:58:00,50.3,46.0,30.21,NW,316,3.0,15.0,85,0.00,,,0.00,weatherlink.com 1.10,2013-11-15 14:58:00,
2013-11-15 15:13:00,50.3,46.0,30.21,WNW,300,6.0,11.0,85,0.00,,,0.00,weatherlink.com 1.10,2013-11-15 15:13:00,
2013-11-15 15:28:00,50.3,46.0,30.21,NNW,330,5.0,14.0,85,0.00,,,0.00,weatherlink.com 1.10,2013-11-15 15:28:00,
2013-11-15 15:43:00,50.4,46.0,30.21,NNW,330,4.0,13.0,85,0.00,,,0.00,weatherlink.com 1.10,2013-11-15 15:43:00,
2013-11-15 15:58:00,50.4,46.0,30.21,NW,321,8.0,12.0,85,0.00,,,0.00,weatherlink.com 1.10,2013-11-15 15:58:00,
2013-11-15 16:13:00,50.4,46.0,30.21,WNW,299,6.0,11.0,85,0.00,,,0.00,weatherlink.com 1.10,2013-11-15 16:13:00,
2013-11-15 16:28:00,50.4,46.0,30.21,NW,305,6.0,13.0,85,0.00,,,0.00,weatherlink.com 1.10,2013-11-15 16:28:00,
2013-11-15 16:43:00,50.4,46.0,30.21,WNW,287,5.0,15.0,85,0.00,,,0.00,weatherlink.com 1.10,2013-11-15 16:43:00,
2013-11-15 16:58:00,50.2,46.0,30.21,NW,309,5.0,11.0,86,0.00,,,0.00,weatherlink.com 1.10,2013-11-15 16:58:00,
2013-11-15 17:13:00,50.1,46.0,30.21,NW,314,7.0,12.0,85,0.00,,,0.00,weatherlink.com 1.10,2013-11-15 17:13:00,
2013-11-15 17:28:00,49.9,46.0,30.21,North,1,8.0,10.0,86,0.00,,,0.00,weatherlink.com 1.10,2013-11-15 17:28:00,
2013-11-15 17:43:00,50.1,46.0,30.21,North,350,1.0,9.0,85,0.00,,,0.00,weatherlink.com 1.10,2013-11-15 17:43:00,
2013-11-15 17:58:00,50.0,46.0,30.21,WNW,294,7.0,8.0,85,0.00,,,0.00,weatherlink.com 1.10,2013-11-15 17:58:00,
2013-11-15 18:13:00,50.0,46.0,30.21,WNW,296,3.0,10.0,85,0.00,,,0.00,weatherlink.com 1.10,2013-11-15 18:13:00,
2013-11-15 18:28:00,49.9,46.0,30.21,North,8,1.0,8.0,85,0.00,,,0.00,weatherlink.com 1.10,2013-11-15 18:28:00,
2013-11-15 18:43:00,49.7,45.0,30.21,NNE,25,1.0,9.0,85,0.00,,,0.00,weatherlink.com 1.10,2013-11-15 18:43:00,
2013-11-15 18:58:00,49.7,45.0,30.21,NW,322,5.0,8.0,85,0.00,,,0.00,weatherlink.com 1.10,2013-11-15 18:58:00,
2013-11-15 19:13:00,49.7,45.0,30.22,NNW,333,4.0,7.0,84,0.00,,,0.00,weatherlink.com 1.10,2013-11-15 19:13:00,
2013-11-15 19:28:00,49.7,45.0,30.22,North,360,2.0,8.0,85,0.00,,,0.00,weatherlink.com 1.10,2013-11-15 19:28:00,
2013-11-15 19:43:00,49.8,46.0,30.23,North,11,3.0,6.0,85,0.00,,,0.00,weatherlink.com 1.10,2013-11-15 19:43:00,
2013-11-15 19:58:00,49.7,45.0,30.22,NNW,328,2.0,8.0,84,0.00,,,0.00,weatherlink.com 1.10,2013-11-15 19:58:00,
2013-11-15 20:13:00,49.7,45.0,30.23,NE,41,1.0,6.0,84,0.00,,,0.00,weatherlink.com 1.10,2013-11-15 20:13:00,
2013-11-15 20:43:00,49.5,45.0,30.22,NNW,330,1.0,7.0,84,0.00,,,0.00,weatherlink.com 1.10,2013-11-15 20:43:00,
2013-11-15 20:58:00,49.5,45.0,30.22,North,356,2.0,7.0,84,0.00,,,0.00,weatherlink.com 1.10,2013-11-15 20:58:00,
2013-11-15 21:14:00,49.5,45.0,30.21,NNW,335,1.0,6.0,84,0.00,,,0.00,weatherlink.com 1.10,2013-11-15 21:14:00,
2013-11-15 21:28:00,49.5,45.0,30.21,WNW,302,6.0,9.0,84,0.00,,,0.00,weatherlink.com 1.10,2013-11-15 21:28:00,
2013-11-15 21:43:00,49.5,45.0,30.21,NW,308,3.0,6.0,84,0.00,,,0.00,weatherlink.com 1.10,2013-11-15 21:43:00,
2013-11-15 21:58:00,49.6,45.0,30.20,WNW,293,5.0,10.0,83,0.00,,,0.00,weatherlink.com 1.10,2013-11-15 21:58:00,
2013-11-15 22:13:00,49.7,44.0,30.20,North,7,4.0,8.0,82,0.00,,,0.00,weatherlink.com 1.10,2013-11-15 22:13:00,
2013-11-15 22:28:00,49.7,44.0,30.20,NNW,336,2.0,9.0,82,0.00,,,0.00,weatherlink.com 1.10,2013-11-15 22:28:00,
2013-11-15 22:43:00,49.6,44.0,30.20,North,353,4.0,7.0,82,0.00,,,0.00,weatherlink.com 1.10,2013-11-15 22:43:00,
2013-11-15 22:58:00,49.7,44.0,30.20,NW,305,3.0,8.0,82,0.00,,,0.00,weatherlink.com 1.10,2013-11-15 22:58:00,
2013-11-15 23:13:00,49.7,44.0,30.20,North,354,8.0,9.0,82,0.00,,,0.00,weatherlink.com 1.10,2013-11-15 23:13:00,
2013-11-15 23:28:00,49.7,44.0,30.20,NNW,330,6.0,7.0,82,0.00,,,0.00,weatherlink.com 1.10,2013-11-15 23:28:00,
2013-11-15 23:43:00,49.7,44.0,30.20,NNE,19,3.0,11.0,82,0.00,,,0.00,weatherlink.com 1.10,2013-11-15 23:43:00,
2013-11-15 23:58:00,49.7,44.0,30.19,NW,306,5.0,10.0,82,0.00,,,0.00,weatherlink.com 1.10,2013-11-15 23:58:00,